This demonstration page uses our WeatherBlox Daily Observations layout. Learn more.

Left ArrowRight Arrow

Hourly Observations for December 30, 2016

Temp ( °F °C ) Dew Point ( °F °C ) Humidity (%) Winds ( mph kmh ) Pressure ( in mb ) Visibility ( mi km ) Precip ( " mm )
12:51 am 00:51 Cloudy 48 8.9 38 3.3 68 68 ESE 10 17 30.28 1026 10 16 0.00 0.00
1:51 am 01:51 Cloudy 48 8.9 38 3.3 68 68 SE 12 19 30.26 1025 10 16 0.00 0.00
2:51 am 02:51 Cloudy 48 8.9 36 2.2 63 63 SE 9 15 30.24 1024 10 16 0.00 0.00
3:51 am 03:51 Cloudy 48 8.9 34 1.1 58 58 ESE 10 17 30.22 1023 10 16 0.00 0.00
4:51 am 04:51 Clear 46 7.8 39 3.9 77 77 SE 9 15 30.20 1023 10 16 0.00 0.00
5:51 am 05:51 Cloudy 46 7.8 39 3.9 77 77 E 7 11 30.20 1023 10 16 0.00 0.00
6:51 am 06:51 Cloudy 46 7.8 39 3.9 77 77 E 6 9 30.21 1023 10 16 0.00 0.00
7:51 am 07:51 Cloudy 46 7.8 40 4.4 79 79 E 7 11 30.19 1022 10 16 0.00 0.00
8:51 am 08:51 Cloudy 48 8.9 40 4.4 74 74 SE 8 13 30.18 1022 10 16 0.00 0.00
9:51 am 09:51 Sunny 50 10 40 4.4 68 68 SE 8 13 30.18 1022 10 16 0.00 0.00
10:51 am 10:51 Mostly Sunny 52 11.1 39 3.9 61 61 SE 7 11 30.15 1021 10 16 0.00 0.00
11:51 am 11:51 Cloudy 53 11.7 39 3.9 59 59 SSE 7 11 30.10 1019 10 16 0.00 0.00
12:51 pm 12:51 Cloudy 54 12.2 38 3.3 55 55 S 7 11 30.05 1018 10 16 0.00 0.00
1:51 pm 13:51 Cloudy 56 13.3 38 3.3 51 51 SSE 9 15 30.00 1016 10 16 0.00 0.00
2:51 pm 14:51 Cloudy 56 13.3 39 3.9 53 53 S 9 15 29.98 1015 10 16 0.00 0.00
3:51 pm 15:51 Cloudy 55 12.8 39 3.9 55 55 S 6 9 29.97 1015 10 16 0.00 0.00
4:51 pm 16:51 Cloudy 55 12.8 40 4.4 57 57 SSE 5 7 29.96 1015 10 16 0.00 0.00
5:51 pm 17:51 Cloudy 54 12.2 40 4.4 59 59 SE 3 6 29.95 1014 10 16 0.00 0.00
6:51 pm 18:51 Cloudy 53 11.7 42 5.6 66 66 ESE 5 7 29.95 1014 10 16 0.00 0.00
7:51 pm 19:51 Partly Cloudy 51 10.6 41 5 69 69 ESE 6 9 29.95 1014 10 16 0.00 0.00
8:51 pm 20:51 Partly Cloudy with Light Rain 49 9.4 41 5 74 74 E 7 11 29.93 1014 10 16 0.00 0.03
9:51 pm 21:51 Cloudy with Light Rain 49 9.4 43 6.1 80 80 E 7 11 29.93 1013 10 16 0.00 0.03
10:51 pm 22:51 Mostly Clear 48 8.9 42 5.6 80 80 SE 12 19 29.91 1013 10 16 0.00 0.03
11:51 pm 23:51 Mostly Cloudy 49 9.4 42 5.6 77 77 E 13 20 29.86 1011 10 16 0.01 0.25

Powered by AerisWeather